contact:dominique.lefevre@mio.osupytheas.fr, maurice.libes@osupytheas.fr, didier.mallarino@osupytheas.fr
Project:EMSO http://www.emso-fr.org/EMSO-France
Depth: 2436.0 m
Title:EMSO Ligure Ouest : Data MII capteur MICROCAT
DateTime_Computer,Latitude,Longitude,Temperature,Conductivity,Pressure,DateTime_Instrument
DateTime_Computer,Latitude,Longitude,degC,S m-1,dbar,DateTime_Instrument
2023-07-30T00:01:47Z,42.805,6.029,13.3027,4.60088,2470.646,2023-7-30T02:04:05Z
2023-07-30T00:04:50Z,42.805,6.029,13.3027,4.60087,2470.67,2023-7-30T02:07:08Z
2023-07-30T00:07:53Z,42.805,6.029,13.3026,4.60092,2470.661,2023-7-30T02:10:11Z
2023-07-30T00:10:56Z,42.805,6.029,13.3029,4.60087,2470.661,2023-7-30T02:13:14Z
2023-07-30T00:13:59Z,42.805,6.029,13.3025,4.60089,2470.661,2023-7-30T02:16:17Z
2023-07-30T00:17:03Z,42.805,6.029,13.3026,4.60087,2470.646,2023-7-30T02:19:21Z
2023-07-30T00:20:06Z,42.805,6.029,13.3026,4.60088,2470.646,2023-7-30T02:22:24Z
2023-07-30T00:23:09Z,42.805,6.029,13.3025,4.60088,2470.684,2023-7-30T02:25:27Z
2023-07-30T00:26:12Z,42.805,6.029,13.3026,4.60089,2470.67,2023-7-30T02:28:30Z
2023-07-30T00:29:15Z,42.805,6.029,13.3028,4.60087,2470.67,2023-7-30T02:31:33Z
2023-07-30T00:32:18Z,42.805,6.029,13.3028,4.60087,2470.646,2023-7-30T02:34:36Z
2023-07-30T00:35:21Z,42.805,6.029,13.3026,4.60087,2470.661,2023-7-30T02:37:39Z
2023-07-30T00:38:24Z,42.805,6.029,13.3029,4.60090,2470.646,2023-7-30T02:40:42Z
2023-07-30T00:41:27Z,42.805,6.029,13.3029,4.60088,2470.67,2023-7-30T02:43:45Z
2023-07-30T00:44:30Z,42.805,6.029,13.3026,4.60089,2470.646,2023-7-30T02:46:48Z
2023-07-30T00:47:33Z,42.805,6.029,13.3031,4.60087,2470.707,2023-7-30T02:49:51Z
2023-07-30T00:50:37Z,42.805,6.029,13.3026,4.60087,2470.684,2023-7-30T02:52:54Z
2023-07-30T00:53:40Z,42.805,6.029,13.3029,4.60087,2470.661,2023-7-30T02:55:58Z
2023-07-30T00:56:43Z,42.805,6.029,13.3026,4.60091,2470.646,2023-7-30T02:59:01Z
2023-07-30T00:59:46Z,42.805,6.029,13.3024,4.60087,2470.684,2023-7-30T03:02:04Z
2023-07-30T01:02:49Z,42.805,6.029,13.3026,4.60092,2470.684,2023-7-30T03:05:07Z
2023-07-30T01:05:52Z,42.805,6.029,13.3031,4.60088,2470.67,2023-7-30T03:08:10Z
2023-07-30T01:08:55Z,42.805,6.029,13.3029,4.60088,2470.707,2023-7-30T03:11:13Z
2023-07-30T01:11:58Z,42.805,6.029,13.3031,4.60089,2470.646,2023-7-30T03:14:16Z
2023-07-30T01:15:01Z,42.805,6.029,13.3026,4.60089,2470.693,2023-7-30T03:17:19Z
2023-07-30T01:18:04Z,42.805,6.029,13.3031,4.60088,2470.684,2023-7-30T03:20:22Z
2023-07-30T01:21:07Z,42.805,6.029,13.3024,4.60089,2470.707,2023-7-30T03:23:25Z
2023-07-30T01:24:10Z,42.805,6.029,13.3028,4.60089,2470.67,2023-7-30T03:26:28Z
2023-07-30T01:27:13Z,42.805,6.029,13.3027,4.60089,2470.684,2023-7-30T03:29:31Z
2023-07-30T01:30:17Z,42.805,6.029,13.3031,4.60091,2470.693,2023-7-30T03:32:35Z
2023-07-30T01:33:20Z,42.805,6.029,13.3029,4.60092,2470.693,2023-7-30T03:35:38Z
2023-07-30T01:36:23Z,42.805,6.029,13.3027,4.60088,2470.684,2023-7-30T03:38:41Z
2023-07-30T01:39:26Z,42.805,6.029,13.3029,4.60090,2470.693,2023-7-30T03:41:44Z
2023-07-30T01:42:29Z,42.805,6.029,13.3031,4.60089,2470.693,2023-7-30T03:44:47Z
2023-07-30T01:45:32Z,42.805,6.029,13.3029,4.60090,2470.693,2023-7-30T03:47:50Z
2023-07-30T01:48:35Z,42.805,6.029,13.3032,4.60089,2470.67,2023-7-30T03:50:53Z
2023-07-30T01:51:38Z,42.805,6.029,13.3031,4.60091,2470.684,2023-7-30T03:53:56Z
2023-07-30T01:54:41Z,42.805,6.029,13.3029,4.60092,2470.717,2023-7-30T03:56:59Z
2023-07-30T01:57:44Z,42.805,6.029,13.3028,4.60089,2470.707,2023-7-30T04:00:02Z
2023-07-30T02:00:47Z,42.805,6.029,13.3030,4.60089,2470.73,2023-7-30T04:03:05Z
2023-07-30T02:03:50Z,42.805,6.029,13.3032,4.60093,2470.693,2023-7-30T04:06:08Z
2023-07-30T02:06:54Z,42.805,6.029,13.3029,4.60089,2470.717,2023-7-30T04:09:11Z
2023-07-30T02:09:57Z,42.805,6.029,13.3034,4.60092,2470.693,2023-7-30T04:12:15Z
2023-07-30T02:13:00Z,42.805,6.029,13.3032,4.60092,2470.67,2023-7-30T04:15:18Z
2023-07-30T02:16:03Z,42.805,6.029,13.3025,4.60092,2470.684,2023-7-30T04:18:21Z
2023-07-30T02:19:06Z,42.805,6.029,13.3027,4.60092,2470.67,2023-7-30T04:21:24Z
2023-07-30T02:22:09Z,42.805,6.029,13.3031,4.60091,2470.707,2023-7-30T04:24:27Z
2023-07-30T02:25:12Z,42.805,6.029,13.3034,4.60091,2470.707,2023-7-30T04:27:30Z
2023-07-30T02:28:15Z,42.805,6.029,13.3030,4.60091,2470.707,2023-7-30T04:30:33Z
2023-07-30T02:31:18Z,42.805,6.029,13.3031,4.60091,2470.67,2023-7-30T04:33:36Z
2023-07-30T02:34:21Z,42.805,6.029,13.3033,4.60091,2470.693,2023-7-30T04:36:39Z
2023-07-30T02:37:24Z,42.805,6.029,13.3033,4.60092,2470.693,2023-7-30T04:39:42Z
2023-07-30T02:40:28Z,42.805,6.029,13.3029,4.60092,2470.693,2023-7-30T04:42:45Z
2023-07-30T02:43:31Z,42.805,6.029,13.3034,4.60093,2470.754,2023-7-30T04:45:49Z
2023-07-30T02:46:34Z,42.805,6.029,13.3034,4.60096,2470.707,2023-7-30T04:48:52Z
2023-07-30T02:49:37Z,42.805,6.029,13.3029,4.60092,2470.693,2023-7-30T04:51:55Z
2023-07-30T02:52:40Z,42.805,6.029,13.3028,4.60094,2470.73,2023-7-30T04:54:58Z
2023-07-30T02:55:43Z,42.805,6.029,13.3036,4.60094,2470.717,2023-7-30T04:58:01Z
2023-07-30T02:58:46Z,42.805,6.029,13.3031,4.60092,2470.73,2023-7-30T05:01:04Z
2023-07-30T03:01:49Z,42.805,6.029,13.3031,4.60096,2470.73,2023-7-30T05:04:07Z
2023-07-30T03:04:52Z,42.805,6.029,13.3031,4.60092,2470.717,2023-7-30T05:07:10Z
2023-07-30T03:07:55Z,42.805,6.029,13.3031,4.60092,2470.73,2023-7-30T05:10:13Z
2023-07-30T03:10:58Z,42.805,6.029,13.3032,4.60092,2470.73,2023-7-30T05:13:16Z
2023-07-30T03:14:01Z,42.805,6.029,13.3030,4.60094,2470.74,2023-7-30T05:16:19Z
2023-07-30T03:17:05Z,42.805,6.029,13.3034,4.60092,2470.754,2023-7-30T05:19:22Z
2023-07-30T03:20:08Z,42.805,6.029,13.3031,4.60092,2470.717,2023-7-30T05:22:25Z
2023-07-30T03:23:11Z,42.805,6.029,13.3031,4.60092,2470.726,2023-7-30T05:25:29Z
2023-07-30T03:26:14Z,42.805,6.029,13.3033,4.60092,2470.754,2023-7-30T05:28:32Z
2023-07-30T03:29:17Z,42.805,6.029,13.3030,4.60092,2470.74,2023-7-30T05:31:35Z
2023-07-30T03:32:20Z,42.805,6.029,13.3036,4.60091,2470.777,2023-7-30T05:34:38Z
2023-07-30T03:35:23Z,42.805,6.029,13.3032,4.60092,2470.73,2023-7-30T05:37:41Z
2023-07-30T03:38:26Z,42.805,6.029,13.3030,4.60091,2470.763,2023-7-30T05:40:44Z
2023-07-30T03:41:29Z,42.805,6.029,13.3029,4.60092,2470.717,2023-7-30T05:43:47Z
2023-07-30T03:44:32Z,42.805,6.029,13.3033,4.60092,2470.74,2023-7-30T05:46:50Z
2023-07-30T03:47:35Z,42.805,6.029,13.3031,4.60091,2470.73,2023-7-30T05:49:53Z
2023-07-30T03:50:38Z,42.805,6.029,13.3031,4.60092,2470.754,2023-7-30T05:52:56Z
2023-07-30T03:53:42Z,42.805,6.029,13.3031,4.60092,2470.73,2023-7-30T05:55:59Z
2023-07-30T03:56:45Z,42.805,6.029,13.3033,4.60092,2470.763,2023-7-30T05:59:03Z
2023-07-30T03:59:48Z,42.805,6.029,13.3029,4.60092,2470.74,2023-7-30T06:02:06Z
2023-07-30T04:02:51Z,42.805,6.029,13.3029,4.60092,2470.73,2023-7-30T06:05:09Z
2023-07-30T04:05:54Z,42.805,6.029,13.3029,4.60091,2470.717,2023-7-30T06:08:12Z
2023-07-30T04:08:57Z,42.805,6.029,13.3033,4.60091,2470.693,2023-7-30T06:11:15Z
2023-07-30T04:12:00Z,42.805,6.029,13.3033,4.60090,2470.754,2023-7-30T06:14:18Z
2023-07-30T04:15:03Z,42.805,6.029,13.3030,4.60092,2470.754,2023-7-30T06:17:21Z
2023-07-30T04:18:06Z,42.805,6.029,13.3034,4.60092,2470.763,2023-7-30T06:20:24Z
2023-07-30T04:21:09Z,42.805,6.029,13.3031,4.60092,2470.717,2023-7-30T06:23:27Z
2023-07-30T04:24:12Z,42.805,6.029,13.3029,4.60091,2470.717,2023-7-30T06:26:30Z
2023-07-30T04:27:15Z,42.805,6.029,13.3028,4.60092,2470.754,2023-7-30T06:29:33Z
2023-07-30T04:30:19Z,42.805,6.029,13.3029,4.60090,2470.717,2023-7-30T06:32:36Z
2023-07-30T04:33:22Z,42.805,6.029,13.3034,4.60091,2470.717,2023-7-30T06:35:40Z
2023-07-30T04:36:25Z,42.805,6.029,13.3031,4.60090,2470.74,2023-7-30T06:38:43Z
2023-07-30T04:39:28Z,42.805,6.029,13.3031,4.60091,2470.73,2023-7-30T06:41:46Z
2023-07-30T04:42:31Z,42.805,6.029,13.3034,4.60091,2470.763,2023-7-30T06:44:49Z
2023-07-30T04:45:34Z,42.805,6.029,13.3033,4.60091,2470.74,2023-7-30T06:47:52Z
2023-07-30T04:48:37Z,42.805,6.029,13.3029,4.60090,2470.74,2023-7-30T06:50:55Z
2023-07-30T04:51:40Z,42.805,6.029,13.3034,4.60090,2470.74,2023-7-30T06:53:58Z
2023-07-30T04:54:43Z,42.805,6.029,13.3028,4.60091,2470.777,2023-7-30T06:57:01Z
2023-07-30T04:57:46Z,42.805,6.029,13.3033,4.60092,2470.763,2023-7-30T07:00:04Z
2023-07-30T05:00:49Z,42.805,6.029,13.3031,4.60091,2470.754,2023-7-30T07:03:07Z
2023-07-30T05:03:52Z,42.805,6.029,13.3034,4.60090,2470.73,2023-7-30T07:06:10Z
2023-07-30T05:06:56Z,42.805,6.029,13.3031,4.60091,2470.726,2023-7-30T07:09:13Z
2023-07-30T05:09:59Z,42.805,6.029,13.3034,4.60091,2470.74,2023-7-30T07:12:17Z
2023-07-30T05:13:02Z,42.805,6.029,13.3027,4.60091,2470.717,2023-7-30T07:15:20Z
2023-07-30T05:16:05Z,42.805,6.029,13.3031,4.60090,2470.74,2023-7-30T07:18:23Z
2023-07-30T05:19:08Z,42.805,6.029,13.3035,4.60092,2470.73,2023-7-30T07:21:26Z
2023-07-30T05:22:11Z,42.805,6.029,13.3030,4.60091,2470.754,2023-7-30T07:24:29Z
2023-07-30T05:25:14Z,42.805,6.029,13.3029,4.60090,2470.74,2023-7-30T07:27:32Z
2023-07-30T05:28:17Z,42.805,6.029,13.3031,4.60091,2470.763,2023-7-30T07:30:35Z
2023-07-30T05:31:20Z,42.805,6.029,13.3031,4.60091,2470.703,2023-7-30T07:33:38Z
2023-07-30T05:34:23Z,42.805,6.029,13.3031,4.60091,2470.74,2023-7-30T07:36:41Z
2023-07-30T05:37:26Z,42.805,6.029,13.3031,4.60091,2470.74,2023-7-30T07:39:44Z
2023-07-30T05:40:29Z,42.805,6.029,13.3032,4.60090,2470.679,2023-7-30T07:42:47Z
2023-07-30T05:43:33Z,42.805,6.029,13.3030,4.60091,2470.717,2023-7-30T07:45:50Z
2023-07-30T05:46:36Z,42.805,6.029,13.3029,4.60091,2470.754,2023-7-30T07:48:54Z
2023-07-30T05:49:39Z,42.805,6.029,13.3031,4.60092,2470.717,2023-7-30T07:51:57Z
2023-07-30T05:52:42Z,42.805,6.029,13.3032,4.60091,2470.73,2023-7-30T07:55:00Z
2023-07-30T05:55:45Z,42.805,6.029,13.3030,4.60089,2470.73,2023-7-30T07:58:03Z
2023-07-30T05:58:48Z,42.805,6.029,13.3029,4.60089,2470.717,2023-7-30T08:01:06Z
2023-07-30T06:01:51Z,42.805,6.029,13.3031,4.60089,2470.754,2023-7-30T08:04:09Z
2023-07-30T06:04:54Z,42.805,6.029,13.3031,4.60091,2470.693,2023-7-30T08:07:12Z
2023-07-30T06:07:57Z,42.805,6.029,13.3029,4.60089,2470.717,2023-7-30T08:10:15Z
2023-07-30T06:11:00Z,42.805,6.029,13.3031,4.60088,2470.717,2023-7-30T08:13:18Z
2023-07-30T06:14:03Z,42.805,6.029,13.3029,4.60089,2470.693,2023-7-30T08:16:21Z
2023-07-30T06:17:06Z,42.805,6.029,13.3031,4.60088,2470.717,2023-7-30T08:19:24Z
2023-07-30T06:20:10Z,42.805,6.029,13.3025,4.60089,2470.717,2023-7-30T08:22:27Z
2023-07-30T06:23:13Z,42.805,6.029,13.3029,4.60089,2470.717,2023-7-30T08:25:31Z
2023-07-30T06:26:16Z,42.805,6.029,13.3030,4.60090,2470.717,2023-7-30T08:28:34Z
2023-07-30T06:29:19Z,42.805,6.029,13.3027,4.60089,2470.717,2023-7-30T08:31:37Z
2023-07-30T06:32:24Z,42.805,6.029,13.3026,4.60089,2470.703,2023-7-30T08:34:42Z
2023-07-30T06:35:27Z,42.805,6.029,13.3028,4.60089,2470.73,2023-7-30T08:37:45Z
2023-07-30T06:38:30Z,42.805,6.029,13.3032,4.60089,2470.717,2023-7-30T08:40:48Z
2023-07-30T06:41:33Z,42.805,6.029,13.3035,4.60092,2470.707,2023-7-30T08:43:51Z
2023-07-30T06:44:36Z,42.805,6.029,13.3036,4.60091,2470.693,2023-7-30T08:46:54Z
2023-07-30T06:47:39Z,42.805,6.029,13.3030,4.60092,2470.717,2023-7-30T08:49:57Z
2023-07-30T06:50:42Z,42.805,6.029,13.3032,4.60089,2470.707,2023-7-30T08:53:00Z
2023-07-30T06:53:45Z,42.805,6.029,13.3035,4.60092,2470.707,2023-7-30T08:56:03Z
2023-07-30T06:56:48Z,42.805,6.029,13.3031,4.60090,2470.73,2023-7-30T08:59:06Z
2023-07-30T06:59:51Z,42.805,6.029,13.3029,4.60089,2470.707,2023-7-30T09:02:09Z
2023-07-30T07:02:55Z,42.805,6.029,13.3028,4.60089,2470.707,2023-7-30T09:05:13Z
2023-07-30T07:05:58Z,42.805,6.029,13.3029,4.60089,2470.717,2023-7-30T09:08:16Z
2023-07-30T07:09:01Z,42.805,6.029,13.3033,4.60091,2470.684,2023-7-30T09:11:19Z
2023-07-30T07:12:04Z,42.805,6.029,13.3032,4.60092,2470.693,2023-7-30T09:14:22Z
2023-07-30T07:15:07Z,42.805,6.029,13.3033,4.60090,2470.707,2023-7-30T09:17:25Z
2023-07-30T07:18:10Z,42.805,6.029,13.3031,4.60090,2470.693,2023-7-30T09:20:28Z
2023-07-30T07:21:13Z,42.805,6.029,13.3032,4.60090,2470.707,2023-7-30T09:23:31Z
2023-07-30T07:24:16Z,42.805,6.029,13.3030,4.60089,2470.74,2023-7-30T09:26:34Z
2023-07-30T07:27:19Z,42.805,6.029,13.3029,4.60090,2470.67,2023-7-30T09:29:37Z
2023-07-30T07:30:22Z,42.805,6.029,13.3034,4.60092,2470.693,2023-7-30T09:32:40Z
2023-07-30T07:33:25Z,42.805,6.029,13.3033,4.60089,2470.717,2023-7-30T09:35:43Z
2023-07-30T07:36:29Z,42.805,6.029,13.3028,4.60089,2470.67,2023-7-30T09:38:46Z
2023-07-30T07:39:32Z,42.805,6.029,13.3031,4.60089,2470.707,2023-7-30T09:41:50Z
2023-07-30T07:42:35Z,42.805,6.029,13.3033,4.60090,2470.717,2023-7-30T09:44:53Z
2023-07-30T07:45:38Z,42.805,6.029,13.3034,4.60090,2470.684,2023-7-30T09:47:56Z
2023-07-30T07:48:41Z,42.805,6.029,13.3028,4.60089,2470.67,2023-7-30T09:50:59Z
2023-07-30T07:51:44Z,42.805,6.029,13.3032,4.60089,2470.707,2023-7-30T09:54:02Z
2023-07-30T07:54:47Z,42.805,6.029,13.3029,4.60090,2470.707,2023-7-30T09:57:05Z
2023-07-30T07:57:50Z,42.805,6.029,13.3031,4.60096,2470.707,2023-7-30T10:00:08Z
2023-07-30T08:00:53Z,42.805,6.029,13.3031,4.60088,2470.67,2023-7-30T10:03:11Z
2023-07-30T08:03:56Z,42.805,6.029,13.3031,4.60090,2470.684,2023-7-30T10:06:14Z
2023-07-30T08:06:59Z,42.805,6.029,13.3031,4.60090,2470.646,2023-7-30T10:09:17Z
2023-07-30T08:10:02Z,42.805,6.029,13.3034,4.60089,2470.684,2023-7-30T10:12:20Z
2023-07-30T08:13:05Z,42.805,6.029,13.3033,4.60090,2470.646,2023-7-30T10:15:23Z
2023-07-30T08:16:09Z,42.805,6.029,13.3028,4.60092,2470.646,2023-7-30T10:18:27Z
2023-07-30T08:19:12Z,42.805,6.029,13.3031,4.60089,2470.67,2023-7-30T10:21:30Z
2023-07-30T08:22:15Z,42.805,6.029,13.3024,4.60090,2470.67,2023-7-30T10:24:33Z
2023-07-30T08:25:18Z,42.805,6.029,13.3032,4.60089,2470.67,2023-7-30T10:27:36Z
2023-07-30T08:28:21Z,42.805,6.029,13.3045,4.60092,2470.646,2023-7-30T10:30:39Z
2023-07-30T08:31:22Z,42.805,6.029,13.3031,4.60092,2470.693,2023-7-30T10:33:40Z
2023-07-30T08:34:25Z,42.805,6.029,13.3031,4.60092,2470.684,2023-7-30T10:36:43Z
2023-07-30T08:37:29Z,42.805,6.029,13.3031,4.60090,2470.646,2023-7-30T10:39:46Z
2023-07-30T08:40:32Z,42.805,6.029,13.3031,4.60089,2470.67,2023-7-30T10:42:50Z
2023-07-30T08:43:35Z,42.805,6.029,13.3029,4.60089,2470.646,2023-7-30T10:45:53Z
2023-07-30T08:46:38Z,42.805,6.029,13.3030,4.60092,2470.661,2023-7-30T10:48:56Z
2023-07-30T08:49:41Z,42.805,6.029,13.3030,4.60089,2470.646,2023-7-30T10:51:59Z
2023-07-30T08:52:44Z,42.805,6.029,13.3031,4.60089,2470.67,2023-7-30T10:55:02Z
2023-07-30T08:55:47Z,42.805,6.029,13.3038,4.60104,2470.637,2023-7-30T10:58:05Z
2023-07-30T08:58:50Z,42.805,6.029,13.3038,4.60095,2470.624,2023-7-30T11:01:08Z
2023-07-30T09:01:53Z,42.805,6.029,13.3038,4.60097,2470.637,2023-7-30T11:04:11Z
2023-07-30T09:04:56Z,42.805,6.029,13.3032,4.60092,2470.624,2023-7-30T11:07:14Z
2023-07-30T09:07:59Z,42.805,6.029,13.3036,4.60094,2470.646,2023-7-30T11:10:17Z
2023-07-30T09:11:02Z,42.805,6.029,13.3031,4.60089,2470.646,2023-7-30T11:13:20Z
2023-07-30T09:14:06Z,42.805,6.029,13.3032,4.60090,2470.661,2023-7-30T11:16:24Z
2023-07-30T09:17:09Z,42.805,6.029,13.3029,4.60089,2470.661,2023-7-30T11:19:27Z
2023-07-30T09:20:12Z,42.805,6.029,13.3032,4.60089,2470.624,2023-7-30T11:22:30Z
2023-07-30T09:23:15Z,42.805,6.029,13.3033,4.60089,2470.624,2023-7-30T11:25:33Z
2023-07-30T09:26:18Z,42.805,6.029,13.3040,4.60099,2470.624,2023-7-30T11:28:36Z
2023-07-30T09:29:21Z,42.805,6.029,13.3032,4.60092,2470.661,2023-7-30T11:31:39Z
2023-07-30T09:32:24Z,42.805,6.029,13.3034,4.60093,2470.624,2023-7-30T11:34:42Z
2023-07-30T09:35:27Z,42.805,6.029,13.3048,4.60102,2470.624,2023-7-30T11:37:45Z
2023-07-30T09:38:30Z,42.805,6.029,13.3052,4.60114,2470.614,2023-7-30T11:40:48Z
2023-07-30T09:41:33Z,42.805,6.029,13.3040,4.60093,2470.624,2023-7-30T11:43:51Z
2023-07-30T09:44:36Z,42.805,6.029,13.3050,4.60109,2470.624,2023-7-30T11:46:54Z
2023-07-30T09:47:40Z,42.805,6.029,13.3043,4.60138,2470.614,2023-7-30T11:49:57Z
2023-07-30T09:50:43Z,42.805,6.029,13.3031,4.60094,2470.577,2023-7-30T11:53:01Z
2023-07-30T09:53:46Z,42.805,6.029,13.3042,4.60102,2470.577,2023-7-30T11:56:04Z
2023-07-30T09:56:49Z,42.805,6.029,13.3044,4.60105,2470.614,2023-7-30T11:59:07Z
2023-07-30T09:59:52Z,42.805,6.029,13.3039,4.60109,2470.637,2023-7-30T12:02:10Z
2023-07-30T10:02:55Z,42.805,6.029,13.3043,4.60102,2470.6,2023-7-30T12:05:13Z
2023-07-30T10:05:58Z,42.805,6.029,13.3043,4.60110,2470.6,2023-7-30T12:08:16Z
2023-07-30T10:09:01Z,42.805,6.029,13.3037,4.60114,2470.624,2023-7-30T12:11:19Z
2023-07-30T10:12:04Z,42.805,6.029,13.3034,4.60092,2470.577,2023-7-30T12:14:22Z
2023-07-30T10:15:07Z,42.805,6.029,13.3043,4.60114,2470.577,2023-7-30T12:17:25Z
2023-07-30T10:18:10Z,42.805,6.029,13.3032,4.60101,2470.586,2023-7-30T12:20:28Z
2023-07-30T10:21:13Z,42.805,6.029,13.3029,4.60092,2470.637,2023-7-30T12:23:31Z
2023-07-30T10:24:17Z,42.805,6.029,13.3032,4.60092,2470.6,2023-7-30T12:26:35Z
2023-07-30T10:27:20Z,42.805,6.029,13.3039,4.60104,2470.6,2023-7-30T12:29:38Z
2023-07-30T10:30:21Z,42.805,6.029,13.3032,4.60092,2470.6,2023-7-30T12:32:39Z
2023-07-30T10:33:24Z,42.805,6.029,13.3040,4.60125,2470.6,2023-7-30T12:35:42Z
2023-07-30T10:36:27Z,42.805,6.029,13.3030,4.60092,2470.591,2023-7-30T12:38:45Z
2023-07-30T10:39:30Z,42.805,6.029,13.3031,4.60089,2470.624,2023-7-30T12:41:48Z
2023-07-30T10:42:33Z,42.805,6.029,13.3040,4.60110,2470.6,2023-7-30T12:44:51Z
2023-07-30T10:45:36Z,42.805,6.029,13.3039,4.60094,2470.577,2023-7-30T12:47:54Z
2023-07-30T10:48:40Z,42.805,6.029,13.3031,4.60092,2470.591,2023-7-30T12:50:58Z
2023-07-30T10:51:43Z,42.805,6.029,13.3027,4.60092,2470.6,2023-7-30T12:54:01Z
2023-07-30T10:54:46Z,42.805,6.029,13.3049,4.60096,2470.553,2023-7-30T12:57:04Z
2023-07-30T10:57:49Z,42.805,6.029,13.3050,4.60106,2470.6,2023-7-30T13:00:07Z
2023-07-30T11:00:52Z,42.805,6.029,13.3044,4.60111,2470.577,2023-7-30T13:03:10Z
2023-07-30T11:03:55Z,42.805,6.029,13.3043,4.60093,2470.577,2023-7-30T13:06:13Z
2023-07-30T11:06:58Z,42.805,6.029,13.3037,4.60094,2470.591,2023-7-30T13:09:16Z
2023-07-30T11:10:01Z,42.805,6.029,13.3048,4.60107,2470.591,2023-7-30T13:12:19Z
2023-07-30T11:13:04Z,42.805,6.029,13.3043,4.60096,2470.614,2023-7-30T13:15:22Z
2023-07-30T11:16:07Z,42.805,6.029,13.3039,4.60102,2470.614,2023-7-30T13:18:25Z
2023-07-30T11:19:10Z,42.805,6.029,13.3041,4.60112,2470.577,2023-7-30T13:21:28Z
2023-07-30T11:22:14Z,42.805,6.029,13.3034,4.60094,2470.591,2023-7-30T13:24:31Z
2023-07-30T11:25:17Z,42.805,6.029,13.3040,4.60102,2470.577,2023-7-30T13:27:35Z
2023-07-30T11:28:20Z,42.805,6.029,13.3041,4.60103,2470.567,2023-7-30T13:30:38Z
2023-07-30T11:31:23Z,42.805,6.029,13.3048,4.60102,2470.577,2023-7-30T13:33:41Z
2023-07-30T11:34:26Z,42.805,6.029,13.3045,4.60127,2470.591,2023-7-30T13:36:44Z
2023-07-30T11:37:29Z,42.805,6.029,13.3048,4.60109,2470.553,2023-7-30T13:39:47Z
2023-07-30T11:40:32Z,42.805,6.029,13.3041,4.60106,2470.567,2023-7-30T13:42:50Z
2023-07-30T11:43:35Z,42.805,6.029,13.3036,4.60092,2470.53,2023-7-30T13:45:53Z
2023-07-30T11:46:38Z,42.805,6.029,13.3047,4.60109,2470.614,2023-7-30T13:48:56Z
2023-07-30T11:49:41Z,42.805,6.029,13.3041,4.60096,2470.567,2023-7-30T13:51:59Z
2023-07-30T11:52:44Z,42.805,6.029,13.3032,4.60090,2470.614,2023-7-30T13:55:02Z
2023-07-30T11:55:47Z,42.805,6.029,13.3038,4.60104,2470.6,2023-7-30T13:58:05Z
2023-07-30T11:58:51Z,42.805,6.029,13.3036,4.60107,2470.577,2023-7-30T14:01:09Z
2023-07-30T12:01:54Z,42.805,6.029,13.3060,4.60107,2470.591,2023-7-30T14:04:12Z
2023-07-30T12:04:57Z,42.805,6.029,13.3034,4.60092,2470.591,2023-7-30T14:07:15Z
2023-07-30T12:08:00Z,42.805,6.029,13.3034,4.60090,2470.577,2023-7-30T14:10:18Z
2023-07-30T12:11:03Z,42.805,6.029,13.3031,4.60092,2470.577,2023-7-30T14:13:21Z
2023-07-30T12:14:06Z,42.805,6.029,13.3051,4.60104,2470.614,2023-7-30T14:16:24Z
2023-07-30T12:17:09Z,42.805,6.029,13.3027,4.60092,2470.6,2023-7-30T14:19:27Z
2023-07-30T12:20:12Z,42.805,6.029,13.3029,4.60089,2470.614,2023-7-30T14:22:30Z
2023-07-30T12:23:15Z,42.805,6.029,13.3034,4.60089,2470.577,2023-7-30T14:25:33Z
2023-07-30T12:26:18Z,42.805,6.029,13.3038,4.60095,2470.6,2023-7-30T14:28:36Z
2023-07-30T12:29:21Z,42.805,6.029,13.3027,4.60089,2470.6,2023-7-30T14:31:39Z
2023-07-30T12:32:25Z,42.805,6.029,13.3039,4.60098,2470.6,2023-7-30T14:34:43Z
2023-07-30T12:35:28Z,42.805,6.029,13.3031,4.60091,2470.6,2023-7-30T14:37:46Z
2023-07-30T12:38:31Z,42.805,6.029,13.3040,4.60093,2470.6,2023-7-30T14:40:49Z
2023-07-30T12:41:34Z,42.805,6.029,13.3051,4.60102,2470.6,2023-7-30T14:43:52Z
2023-07-30T12:44:37Z,42.805,6.029,13.3041,4.60107,2470.591,2023-7-30T14:46:55Z
2023-07-30T12:47:40Z,42.805,6.029,13.3039,4.60104,2470.637,2023-7-30T14:49:58Z
2023-07-30T12:50:43Z,42.805,6.029,13.3039,4.60099,2470.6,2023-7-30T14:53:01Z
2023-07-30T12:53:46Z,42.805,6.029,13.3033,4.60094,2470.6,2023-7-30T14:56:04Z
2023-07-30T12:56:49Z,42.805,6.029,13.3031,4.60093,2470.624,2023-7-30T14:59:07Z
2023-07-30T12:59:52Z,42.805,6.029,13.3034,4.60092,2470.614,2023-7-30T15:02:10Z
2023-07-30T13:02:55Z,42.805,6.029,13.3031,4.60089,2470.6,2023-7-30T15:05:13Z
2023-07-30T13:05:59Z,42.805,6.029,13.3032,4.60089,2470.624,2023-7-30T15:08:16Z
2023-07-30T13:09:02Z,42.805,6.029,13.3043,4.60117,2470.661,2023-7-30T15:11:20Z
2023-07-30T13:12:05Z,42.805,6.029,13.3034,4.60092,2470.6,2023-7-30T15:14:23Z
2023-07-30T13:15:08Z,42.805,6.029,13.3028,4.60092,2470.624,2023-7-30T15:17:26Z
2023-07-30T13:18:11Z,42.805,6.029,13.3027,4.60090,2470.6,2023-7-30T15:20:29Z
2023-07-30T13:21:14Z,42.805,6.029,13.3033,4.60089,2470.6,2023-7-30T15:23:32Z
2023-07-30T13:24:17Z,42.805,6.029,13.3029,4.60087,2470.624,2023-7-30T15:26:35Z
2023-07-30T13:27:20Z,42.805,6.029,13.3030,4.60089,2470.624,2023-7-30T15:29:38Z
2023-07-30T13:30:23Z,42.805,6.029,13.3028,4.60090,2470.624,2023-7-30T15:32:41Z
2023-07-30T13:33:26Z,42.805,6.029,13.3032,4.60089,2470.624,2023-7-30T15:35:44Z
2023-07-30T13:36:29Z,42.805,6.029,13.3036,4.60097,2470.6,2023-7-30T15:38:47Z
2023-07-30T13:39:33Z,42.805,6.029,13.3033,4.60092,2470.624,2023-7-30T15:41:50Z
2023-07-30T13:42:36Z,42.805,6.029,13.3031,4.60089,2470.646,2023-7-30T15:44:54Z
2023-07-30T13:45:39Z,42.805,6.029,13.3031,4.60089,2470.67,2023-7-30T15:47:57Z
2023-07-30T13:48:42Z,42.805,6.029,13.3031,4.60090,2470.646,2023-7-30T15:51:00Z
2023-07-30T13:51:45Z,42.805,6.029,13.3030,4.60089,2470.646,2023-7-30T15:54:03Z
2023-07-30T13:54:48Z,42.805,6.029,13.3031,4.60088,2470.646,2023-7-30T15:57:06Z
2023-07-30T13:57:51Z,42.805,6.029,13.3029,4.60088,2470.67,2023-7-30T16:00:09Z
2023-07-30T14:00:54Z,42.805,6.029,13.3027,4.60089,2470.646,2023-7-30T16:03:12Z
2023-07-30T14:03:57Z,42.805,6.029,13.3028,4.60091,2470.656,2023-7-30T16:06:15Z
2023-07-30T14:07:00Z,42.805,6.029,13.3030,4.60089,2470.646,2023-7-30T16:09:18Z
2023-07-30T14:10:03Z,42.805,6.029,13.3029,4.60092,2470.661,2023-7-30T16:12:21Z
2023-07-30T14:13:06Z,42.805,6.029,13.3029,4.60089,2470.67,2023-7-30T16:15:24Z
2023-07-30T14:16:10Z,42.805,6.029,13.3028,4.60090,2470.67,2023-7-30T16:18:27Z
2023-07-30T14:19:13Z,42.805,6.029,13.3028,4.60091,2470.67,2023-7-30T16:21:31Z
2023-07-30T14:22:16Z,42.805,6.029,13.3028,4.60089,2470.661,2023-7-30T16:24:34Z
2023-07-30T14:25:19Z,42.805,6.029,13.3029,4.60088,2470.646,2023-7-30T16:27:37Z
2023-07-30T14:28:22Z,42.805,6.029,13.3029,4.60090,2470.67,2023-7-30T16:30:40Z
2023-07-30T14:31:24Z,42.805,6.029,13.3029,4.60089,2470.693,2023-7-30T16:33:42Z
2023-07-30T14:34:27Z,42.805,6.029,13.3029,4.60088,2470.646,2023-7-30T16:36:45Z
2023-07-30T14:37:30Z,42.805,6.029,13.3033,4.60091,2470.693,2023-7-30T16:39:48Z
2023-07-30T14:40:33Z,42.805,6.029,13.3029,4.60089,2470.67,2023-7-30T16:42:51Z
2023-07-30T14:43:36Z,42.805,6.029,13.3029,4.60088,2470.707,2023-7-30T16:45:54Z
2023-07-30T14:46:39Z,42.805,6.029,13.3029,4.60088,2470.684,2023-7-30T16:48:57Z
2023-07-30T14:49:42Z,42.805,6.029,13.3032,4.60089,2470.646,2023-7-30T16:52:00Z
2023-07-30T14:52:45Z,42.805,6.029,13.3026,4.60092,2470.693,2023-7-30T16:55:03Z
2023-07-30T14:55:48Z,42.805,6.029,13.3031,4.60090,2470.707,2023-7-30T16:58:06Z
2023-07-30T14:58:51Z,42.805,6.029,13.3026,4.60090,2470.693,2023-7-30T17:01:09Z
2023-07-30T15:01:55Z,42.805,6.029,13.3033,4.60089,2470.717,2023-7-30T17:04:12Z
2023-07-30T15:04:58Z,42.805,6.029,13.3028,4.60090,2470.707,2023-7-30T17:07:16Z
2023-07-30T15:08:01Z,42.805,6.029,13.3031,4.60089,2470.693,2023-7-30T17:10:19Z
2023-07-30T15:11:04Z,42.805,6.029,13.3029,4.60090,2470.693,2023-7-30T17:13:22Z
2023-07-30T15:14:07Z,42.805,6.029,13.3027,4.60089,2470.717,2023-7-30T17:16:25Z